When you browse on this site, cookies collect data to enhance your experience and personalize the content and advertising you see.
Visit our Privacy Policy to learn more. By continuing to use the site, you agree to this use of cookies and data.
  • In Hungary
  • List of Countries
  • For 7 days
  • Water Temperature
  • Satellite Maps
  • Weather Map
  • News
  • Weather Widgets
  • user-avatar
    Login

    Hourly Weather Zwolle

    Today, 21 January, Monday

    Time Temperature Precipitation Wind Pressure Humidity
    00:00 -2°C° 0 mm 0 mps 767 mmHg 70%
    01:00 -2°C° 0 mm 0 mps 767 mmHg 69%
    02:00 -2°C° 0 mm 0 mps 766 mmHg 68%
    03:00 -1°C° 0 mm 1 mps 766 mmHg 67%
    04:00 -1°C° 0 mm 1 mps 766 mmHg 67%
    05:00 -1°C° 0 mm 1 mps 766 mmHg 68%
    06:00 -1°C° 0 mm 1 mps 766 mmHg 68%
    07:00 -3°C° 0 mm 2 mps 766 mmHg 66%
    08:00 -2°C° 0 mm 2 mps 766 mmHg 64%
    09:00 -2°C° 0 mm 2 mps 766 mmHg 63%
    10:00 -1°C° 0 mm 2 mps 766 mmHg 59%
    11:00 0°C° 0 mm 3 mps 765 mmHg 56%
    12:00 +2°C° 0 mm 3 mps 765 mmHg 52%
    13:00 +1°C° 0 mm 3 mps 765 mmHg 54%
    14:00 +1°C° 0 mm 3 mps 764 mmHg 57%
    15:00 +1°C° 0 mm 3 mps 764 mmHg 59%
    16:00 0°C° 0 mm 3 mps 764 mmHg 62%
    17:00 -1°C° 0 mm 3 mps 763 mmHg 64%
    18:00 -1°C° 0 mm 3 mps 763 mmHg 67%
    19:00 -2°C° 0 mm 3 mps 763 mmHg 68%
    20:00 -2°C° 0 mm 3 mps 762 mmHg 69%
    21:00 -2°C° 0 mm 3 mps 762 mmHg 71%
    22:00 -3°C° 0 mm 4 mps 761 mmHg 66%
    23:00 -3°C° 0 mm 4 mps 760 mmHg 61%

    Tomorrow, 22 January, Tuesday

    Time Temperature Precipitation Wind Pressure Humidity
    00:00 -4°C° 0 mm 4 mps 760 mmHg 56%
    01:00 -4°C° 0 mm 4 mps 759 mmHg 55%
    02:00 -5°C° 0 mm 5 mps 758 mmHg 54%
    03:00 -5°C° 0 mm 5 mps 757 mmHg 52%
    04:00 -4°C° 0 mm 5 mps 756 mmHg 51%
    05:00 -4°C° 0 mm 6 mps 755 mmHg 50%
    06:00 -4°C° 0 mm 6 mps 754 mmHg 49%
    07:00 -3°C° 0 mm 7 mps 753 mmHg 48%
    08:00 -3°C° 0 mm 7 mps 752 mmHg 47%
    09:00 -3°C° 0 mm 7 mps 751 mmHg 46%
    10:00 -3°C° 0.1 mm 7 mps 751 mmHg 56%
    11:00 -3°C° 0.1 mm 7 mps 750 mmHg 67%
    12:00 -3°C° 0.1 mm 7 mps 750 mmHg 77%
    13:00 -3°C° 0.3 mm 7 mps 750 mmHg 80%
    14:00 -3°C° 0.3 mm 6 mps 749 mmHg 83%
    15:00 -2°C° 0.3 mm 6 mps 749 mmHg 86%
    16:00 -2°C° 0.3 mm 5 mps 749 mmHg 89%
    17:00 -2°C° 0.3 mm 4 mps 749 mmHg 92%
    18:00 -2°C° 0.3 mm 4 mps 749 mmHg 94%
    19:00 -1°C° 0.2 mm 3 mps 749 mmHg 95%
    20:00 -1°C° 0.2 mm 3 mps 749 mmHg 96%
    21:00 -1°C° 0.2 mm 2 mps 749 mmHg 96%
    22:00 -1°C° 0.1 mm 2 mps 749 mmHg 97%
    23:00 -1°C° 0.1 mm 2 mps 749 mmHg 97%

    Day after tomorrow, 23 January, Wednesday

    Time Temperature Precipitation Wind Pressure Humidity
    00:00 -1°C° 0.1 mm 2 mps 749 mmHg 97%
    01:00 +1°C° 0.1 mm 1 mps 749 mmHg 97%
    02:00 +1°C° 0.1 mm 1 mps 749 mmHg 97%
    03:00 0°C° 0.1 mm 1 mps 749 mmHg 96%
    04:00 -1°C° 0.1 mm 0 mps 749 mmHg 96%
    05:00 -1°C° 0.1 mm 0 mps 750 mmHg 96%
    06:00 -1°C° 0.1 mm 0 mps 750 mmHg 96%
    07:00 0°C° 0 mm 0 mps 750 mmHg 95%
    08:00 0°C° 0 mm 0 mps 751 mmHg 95%
    09:00 0°C° 0 mm 0 mps 751 mmHg 95%
    10:00 +1°C° 0.1 mm 0 mps 752 mmHg 94%
    11:00 +1°C° 0.1 mm 0 mps 752 mmHg 93%
    12:00 +2°C° 0.1 mm 1 mps 752 mmHg 92%
    13:00 +2°C° 0 mm 1 mps 752 mmHg 92%
    14:00 +2°C° 0 mm 1 mps 753 mmHg 93%
    15:00 +2°C° 0 mm 1 mps 753 mmHg 94%
    16:00 +1°C° 0 mm 1 mps 753 mmHg 93%
    17:00 +1°C° 0 mm 1 mps 754 mmHg 92%
    18:00 -2°C° 0 mm 2 mps 755 mmHg 92%
    19:00 -2°C° 0 mm 2 mps 755 mmHg 91%
    20:00 -3°C° 0 mm 2 mps 756 mmHg 90%
    21:00 -4°C° 0 mm 2 mps 756 mmHg 89%
    22:00 -4°C° 0 mm 2 mps 757 mmHg 88%
    23:00 -4°C° 0 mm 2 mps 758 mmHg 87%

    24 January, Thursday

    Time Temperature Precipitation Wind Pressure Humidity
    00:00 -4°C° 0 mm 2 mps 758 mmHg 86%
    01:00 -4°C° 0 mm 2 mps 758 mmHg 85%
    02:00 -4°C° 0 mm 2 mps 759 mmHg 84%
    03:00 -3°C° 0 mm 1 mps 759 mmHg 83%
    04:00 -3°C° 0 mm 1 mps 760 mmHg 83%
    05:00 -3°C° 0 mm 1 mps 760 mmHg 82%
    06:00 -3°C° 0 mm 1 mps 761 mmHg 81%
    07:00 -2°C° 0 mm 1 mps 761 mmHg 80%
    08:00 -2°C° 0 mm 1 mps 762 mmHg 78%
    09:00 -1°C° 0 mm 1 mps 762 mmHg 76%
    10:00 -1°C° 0 mm 0 mps 763 mmHg 73%
    11:00 -1°C° 0 mm 0 mps 763 mmHg 69%
    12:00 0°C° 0 mm 0 mps 763 mmHg 66%
    13:00 0°C° 0 mm 0 mps 763 mmHg 70%
    14:00 0°C° 0 mm 0 mps 763 mmHg 73%
    15:00 0°C° 0 mm 0 mps 763 mmHg 77%
    16:00 0°C° 0 mm 1 mps 763 mmHg 79%
    17:00 0°C° 0 mm 1 mps 764 mmHg 81%
    18:00 -1°C° 0 mm 1 mps 764 mmHg 83%
    19:00 -3°C° 0 mm 2 mps 764 mmHg 85%
    20:00 -3°C° 0 mm 2 mps 764 mmHg 87%
    21:00 -2°C° 0 mm 2 mps 764 mmHg 89%
    22:00 -2°C° 0 mm 3 mps 764 mmHg 90%
    23:00 -2°C° 0 mm 3 mps 764 mmHg 91%

    25 January, Friday

    Time Temperature Precipitation Wind Pressure Humidity
    00:00 -2°C° 0 mm 3 mps 764 mmHg 92%
    01:00 -3°C° 0 mm 4 mps 763 mmHg 92%
    02:00 -2°C° 0 mm 4 mps 763 mmHg 92%
    03:00 -2°C° 0 mm 4 mps 763 mmHg 91%
    04:00 -2°C° 0.1 mm 5 mps 762 mmHg 90%
    05:00 -1°C° 0.1 mm 5 mps 762 mmHg 89%
    06:00 -1°C° 0.1 mm 5 mps 761 mmHg 88%
    07:00 -2°C° 0.3 mm 6 mps 761 mmHg 89%
    08:00 -2°C° 0.3 mm 6 mps 761 mmHg 90%
    09:00 -2°C° 0.3 mm 6 mps 761 mmHg 91%
    10:00 -2°C° 0.2 mm 6 mps 760 mmHg 92%
    11:00 -1°C° 0.2 mm 6 mps 760 mmHg 93%
    12:00 -1°C° 0.2 mm 6 mps 760 mmHg 93%
    13:00 -1°C° 0.1 mm 6 mps 759 mmHg 95%
    14:00 +1°C° 0.1 mm 5 mps 759 mmHg 96%
    15:00 +1°C° 0.1 mm 5 mps 759 mmHg 97%
    16:00 +2°C° 0 mm 5 mps 759 mmHg 97%
    17:00 +2°C° 0 mm 5 mps 758 mmHg 97%
    18:00 +2°C° 0 mm 5 mps 758 mmHg 97%
    19:00 +3°C° 0.5 mm 5 mps 758 mmHg 96%
    20:00 +3°C° 0.5 mm 5 mps 758 mmHg 96%
    21:00 +3°C° 0.5 mm 6 mps 758 mmHg 96%
    22:00 +3°C° 0.3 mm 6 mps 757 mmHg 96%
    23:00 +3°C° 0.3 mm 6 mps 757 mmHg 96%

    26 January, Saturday

    Time Temperature Precipitation Wind Pressure Humidity
    00:00 +3°C° 0.3 mm 6 mps 757 mmHg 96%
    01:00 +3°C° 0.5 mm 5 mps 756 mmHg 96%
    02:00 +3°C° 0.5 mm 5 mps 756 mmHg 96%
    03:00 +3°C° 0.5 mm 5 mps 755 mmHg 97%
    04:00 +4°C° 0.6 mm 4 mps 755 mmHg 97%
    05:00 +3°C° 0.6 mm 3 mps 754 mmHg 97%
    06:00 +3°C° 0.6 mm 3 mps 754 mmHg 98%
    07:00 +3°C° 0.3 mm 3 mps 753 mmHg 98%
    08:00 +3°C° 0.3 mm 3 mps 753 mmHg 98%
    09:00 +3°C° 0.3 mm 3 mps 752 mmHg 98%
    10:00 +4°C° 0.6 mm 4 mps 751 mmHg 97%
    11:00 +5°C° 0.6 mm 5 mps 751 mmHg 96%
    12:00 +5°C° 0.6 mm 6 mps 750 mmHg 95%
    13:00 +5°C° 1.4 mm 7 mps 749 mmHg 94%
    14:00 +5°C° 1.4 mm 7 mps 748 mmHg 94%
    15:00 +5°C° 1.4 mm 8 mps 747 mmHg 94%
    16:00 +5°C° 1.8 mm 8 mps 746 mmHg 94%
    17:00 +4°C° 1.8 mm 7 mps 745 mmHg 93%
    18:00 +4°C° 1.8 mm 7 mps 745 mmHg 92%
    19:00 +4°C° 0.3 mm 7 mps 744 mmHg 91%
    20:00 +4°C° 0.3 mm 7 mps 743 mmHg 91%
    21:00 +4°C° 0.3 mm 7 mps 742 mmHg 90%
    22:00 +3°C° 0.2 mm 6 mps 742 mmHg 91%
    23:00 +3°C° 0.2 mm 6 mps 741 mmHg 91%
    Show more